Regional Weather Roundup
Issued by NWS

Home | Current Version | Previous Version | Graphics & Text | Print | Product List | Glossary On
Versions: 1 2 3 4 5 6 7 8 9 10 11 12 13 14 15 16 17 18 19 20 21 22 23 24 25 26 27 28 29 30 31 32 33 34 35 36 37 38 39 40 41 42 43 44 45 46 47 48 49 50
561
ASUS43 KOAX 181002
RWRNE

WEATHER ROUNDUP FOR NEBRASKA
NATIONAL WEATHER SERVICE OMAHA NE
400 AM CST THU JAN 18 2018

NOTES: SATELLITE DATA IS BEING USED TO AUGMENT CLOUD COVER ABOVE
       12000 FEET.
       "FAIR" INDICATES FEW OR NO CLOUDS BELOW 12,000 FEET WITH NO
       SIGNIFICANT WEATHER AND/OR OBSTRUCTIONS TO VISIBILITY.


NEZ001>004-019>022-054>056-181100-
NEBRASKA PANHANDLE

CITY           SKY/WX    TMP DP  RH WIND       PRES   REMARKS
SCOTTSBLUFF    PTCLDY    19  14  81 CALM      30.08F
ALLIANCE       PTCLDY    15  12  88 W7        30.05F WCI   5
CHADRON        MOCLDY    25  20  81 SW13      30.02F WCI  14
GORDON         FAIR      28  20  71 W6        30.02F WCI  22
SIDNEY         CLEAR     21  16  81 W8        30.10F WCI  11
$$

NEZ057>060-069>072-079>082-181100-
SOUTHWEST NEBRASKA

CITY           SKY/WX    TMP DP  RH WIND       PRES   REMARKS
NORTH PLATTE   CLEAR     13   9  84 NW3       30.10F
IMPERIAL       CLEAR     21  16  81 W8        30.12F WCI  11
LEXINGTON      CLEAR     16  12  84 W7        30.12F WCI   6
MCCOOK         CLEAR     18  13  80 W9        30.14F WCI   7
OGALLALA       CLEAR     19  16  88 W5        30.11F WCI  12
$$

NEZ005>010-023>029-035>040-094-181100-
NORTH CENTRAL NEBRASKA

CITY           SKY/WX    TMP DP  RH WIND       PRES   REMARKS
VALENTINE      CLEAR     25  19  78 W5        30.02F WCI  19
AINSWORTH      CLEAR     27  21  79 SW12      30.02F WCI  17
BROKEN BOW     CLEAR     18  11  74 CALM      30.08F
O`NEILL        CLEAR     21  18  90 SW8       30.04F WCI  11
ORD            CLEAR     11   9  92 CALM      30.10F
THEDFORD       CLEAR     24  18  79 W3        30.05F
$$

NEZ041-046>049-061>064-073>077-083>087-181100-
SOUTH CENTRAL NEBRASKA

CITY           SKY/WX    TMP DP  RH WIND       PRES   REMARKS
GRAND ISLAND   CLOUDY    14  10  84 S9        30.12F WCI   2
AURORA         CLOUDY    14   9  81 SW3       30.15F
HASTINGS       CLOUDY    18  10  71 SW6       30.14F WCI  10
HEBRON         CLOUDY    15   8  73 CALM      30.21F
HOLDREGE       CLOUDY    18  13  81 CALM      30.12F
KEARNEY        CLOUDY    14   9  80 SW5       30.12F WCI   6
YORK           CLOUDY    12  10  92 CALM      30.16F
$$

NEZ011>018-030>034-042>045-181100-
NORTHEAST NEBRASKA

CITY           SKY/WX    TMP DP  RH WIND       PRES   REMARKS
NORFOLK        CLOUDY    17  12  80 CALM      30.09F
ALBION         CLOUDY    20  14  79 CALM      30.10F
BLAIR          CLOUDY    20  12  71 S9        30.16F WCI   9
COLUMBUS       CLOUDY    17  12  80 SW3       30.14F
FREMONT        CLOUDY    20  12  71 S5        30.16F WCI  14
TEKAMAH        CLOUDY    14   9  80 S10       30.15F WCI   1
WAYNE          CLOUDY    17  15  92 S5        30.09F WCI  10
$$

NEZ050>053-065>068-078-088>093-181100-
SOUTHEAST NEBRASKA

CITY           SKY/WX    TMP DP  RH WIND       PRES   REMARKS
LINCOLN        CLOUDY    14   7  73 S7        30.22F WCI   4
OMAHA EPPLEY   CLOUDY    13   8  81 SE9       30.21F WCI   1
BEATRICE       CLOUDY    16   8  71 S6        30.22F WCI   7
FALLS CITY     CLOUDY    14   7  73 S3        30.26F
NEBRASKA CITY  CLOUDY    18  10  71 SW12      30.21F WCI   5
PLATTSMOUTH    CLOUDY    19  10  67 S10       30.20F WCI   8
$$

NEZ044-045-051>053-067-181100-
OMAHA AREA

CITY           SKY/WX    TMP DP  RH WIND       PRES   REMARKS
OMAHA EPPLEY   CLOUDY    13   8  81 SE9       30.21F WCI   1
BLAIR          CLOUDY    20  12  71 S9        30.16F WCI   9
FREMONT        CLOUDY    20  12  71 S5        30.16F WCI  14
MILLARD        CLOUDY    19  11  69 S3        30.20F
OFFUTT AFB     CLOUDY     6   2  83 CALM      30.20F
PLATTSMOUTH    CLOUDY    19  10  67 S10       30.20F WCI   8
WAHOO          FAIR      20  10  66 SW6       30.19S WCI  12
$$




USA.gov is the U.S. government's official web portal to all federal, state and local government web resources and services.